EW2847 Weather Reports


Display with metric or nautical units.
time (UTC)temp
F
wind
direction
speed
MPH
gust
MPH
rain 1hr
in
rain 24hr
in
rain mn
in
humidity
%
barometer
mb
20260507163032 40 350 2.0 6.0 0.00 0.06 0.06 82 1006.9
20260507161535 39 350 3.0 5.0 0.00 0.06 0.06 84 1006.9
20260507160040 39 350 3.0 6.0 0.00 0.06 0.06 85 1007.0
20260507154524 38 350 3.0 8.0 0.00 0.06 0.06 86 1007.0
20260507153021 38 350 2.0 5.0 0.00 0.06 0.06 89 1007.1
20260507151519 38 350 2.0 4.0 0.00 0.06 0.06 90 1007.1
20260507150020 37 350 2.0 4.0 0.00 0.06 0.06 91 1007.2
20260507144526 36 350 2.0 4.0 0.01 0.06 0.06 91 1007.1
20260507143015 36 350 1.0 4.0 0.02 0.06 0.06 91 1007.2
20260507141517 36 350 1.0 4.0 0.02 0.06 0.06 91 1007.2
20260507140011 35 350 1.0 4.0 0.03 0.06 0.06 93 1007.3
20260507134511 35 350 1.0 3.0 0.03 0.05 0.05 93 1007.2
20260507133013 34 350 1.0 3.0 0.03 0.04 0.04 93 1007.3
20260507131510 34 325 1.0 3.0 0.04 0.04 0.04 93 1007.2
20260507130021 34 340 0.0 2.0 0.03 0.03 0.03 94 1007.1
20260507124508 34 323 0.0 2.0 0.02 0.02 0.02 94 1007.1
20260507123008 33 317 0.0 2.0 0.01 0.01 0.01 94 1007.1
20260507121508 33 295 0.0 2.0 0.00 0.00 0.00 94 1007.0
20260507120007 33 296 1.0 3.0 0.00 0.00 0.00 94 1006.9
20260507114506 33 323 0.0 2.0 0.00 0.00 0.00 94 1006.9
20260507113009 33 313 1.0 3.0 0.00 0.00 0.00 94 1006.9
20260507111504 32 331 0.0 3.0 0.00 0.00 0.00 94 1006.8
20260507110009 32 302 0.0 3.0 0.00 0.00 0.00 93 1006.8
20260507104503 32 313 1.0 3.0 0.00 0.00 0.00 93 1006.8
20260507103059 32 325 0.0 3.0 0.00 0.00 0.00 93 1006.8
20260507101559 33 325 0.0 2.0 0.00 0.00 0.00 92 1006.8
20260507100058 33 325 1.0 2.0 0.00 0.00 0.00 92 1006.7
20260507094555 33 311 0.0 2.0 0.00 0.00 0.00 91 1006.8
20260507093053 33 307 0.0 1.0 0.00 0.00 0.00 89 1006.9
20260507091551 33 307 0.0 2.0 0.00 0.00 0.00 89 1007.0
20260507090050 33 307 0.0 1.0 0.00 0.00 0.00 88 1007.1
20260507084550 33 307 0.0 2.0 0.00 0.00 0.00 89 1007.2
20260507083047 34 307 0.0 2.0 0.00 0.00 0.00 88 1007.1
20260507081545 34 310 1.0 3.0 0.00 0.00 0.00 87 1007.1
20260507080043 34 321 0.0 2.0 0.00 0.00 0.00 84 1007.1
20260507074549 34 321 0.0 2.0 0.00 0.00 0.00 83 1007.1
20260507073044 35 321 0.0 2.0 0.00 0.00 0.00 82 1007.1
20260507071539 35 321 0.0 2.0 0.00 0.00 0.00 81 1007.3
20260507070041 35 321 0.0 1.0 0.00 0.00 0.00 82 1007.4
20260507064536 35 321 0.0 1.0 0.00 0.00 0.00 82 1007.3
20260507063051 35 321 0.0 0.0 0.00 0.00 0.00 80 1007.4
20260507061535 35 321 0.0 0.0 0.00 0.00 0.00 80 1007.5
20260507060042 35 321 0.0 1.0 0.00 0.00 0.00 80 1007.6
20260507054531 35 321 0.0 1.0 0.00 0.00 0.00 80 1007.6
20260507053031 35 321 0.0 1.0 0.00 0.00 0.00 79 1007.7
20260507051532 35 321 0.0 1.0 0.00 0.00 0.00 78 1007.7
20260507050034 36 321 0.0 3.0 0.00 0.00 0.00 77 1007.6
20260507044524 36 318 0.0 1.0 0.00 0.00 0.00 76 1007.7
20260507043022 36 318 0.0 2.0 0.00 0.00 0.00 76 1007.7
20260507041519 36 318 0.0 1.0 0.00 0.00 0.00 75 1007.9
20260507040019 36 318 0.0 0.0 0.00 0.00 0.00 74 1007.8
20260507034530 36 318 0.0 1.0 0.00 0.00 0.00 74 1007.8
20260507033017 36 318 0.0 0.0 0.00 0.00 0.00 73 1007.7
20260507031516 37 318 0.0 2.0 0.00 0.00 0.00 72 1007.6
20260507030016 37 338 1.0 2.0 0.00 0.00 0.00 70 1007.5
20260507024517 38 351 0.0 3.0 0.00 0.00 0.00 69 1007.3
20260507023021 38 351 0.0 2.0 0.00 0.00 0.00 68 1007.3
20260507021514 39 351 0.0 0.0 0.00 0.00 0.00 66 1007.6
20260507020027 39 351 0.0 4.0 0.00 0.00 0.00 65 1007.7
20260507014513 40 355 0.0 3.0 0.00 0.00 0.00 64 1007.8
20260507013024 40 355 1.0 2.0 0.00 0.00 0.00 63 1007.9
20260507011513 40 355 0.0 1.0 0.00 0.00 0.00 63 1008.0
20260507010012 40 355 0.0 3.0 0.00 0.00 0.00 62 1007.9
20260507004510 41 355 0.0 2.0 0.00 0.00 0.00 61 1007.8
20260507003011 41 355 1.0 3.0 0.00 0.00 0.00 61 1007.8
20260507001509 41 355 0.0 3.0 0.00 0.00 0.00 60 1007.8
20260507000007 42 355 0.0 4.0 0.00 0.00 0.00 59 1007.8
20260506234508 42 355 1.0 4.0 0.00 0.00 0.00 59 1007.7
20260506233005 42 355 1.0 5.0 0.00 0.00 0.00 58 1007.6
20260506231503 43 355 1.0 5.0 0.00 0.00 0.00 57 1007.5
20260506230002 43 355 0.0 5.0 0.00 0.00 0.00 57 1007.4
20260506224505 43 355 1.0 5.0 0.00 0.00 0.00 56 1007.3
20260506223100 44 355 2.0 5.0 0.00 0.00 0.00 56 1007.3
20260506221601 44 355 1.0 5.0 0.00 0.00 0.00 55 1007.3
20260506220100 44 355 0.0 4.0 0.00 0.00 0.00 54 1007.2
20260506214602 45 355 2.0 4.0 0.00 0.00 0.00 53 1007.1
20260506213054 45 355 1.0 6.0 0.00 0.00 0.00 53 1007.0
20260506211606 45 355 1.0 6.0 0.00 0.00 0.00 52 1006.9
20260506210052 45 355 1.0 4.0 0.00 0.00 0.00 51 1006.7
20260506204550 45 355 1.0 10.0 0.00 0.00 0.00 51 1006.6
20260506203049 46 355 0.0 6.0 0.00 0.00 0.00 51 1006.5
20260506201549 46 355 2.0 5.0 0.00 0.00 0.00 51 1006.5
20260506200050 46 355 1.0 8.0 0.00 0.00 0.00 50 1006.5
20260506194550 46 355 0.0 5.0 0.00 0.00 0.00 50 1006.4
20260506193047 46 355 1.0 8.0 0.00 0.00 0.00 50 1006.4
20260506191546 46 355 2.0 14.0 0.00 0.00 0.00 50 1006.4
20260506190045 46 355 1.0 10.0 0.00 0.00 0.00 49 1006.2
20260506184544 47 355 2.0 8.0 0.00 0.00 0.00 49 1006.1
20260506183042 47 355 5.0 14.0 0.00 0.00 0.00 47 1006.0
20260506181540 47 355 1.0 8.0 0.00 0.00 0.00 47 1005.9
20260506180042 46 355 2.0 10.0 0.00 0.00 0.00 47 1005.7
20260506174538 46 355 2.0 4.0 0.00 0.00 0.00 47 1005.7
20260506173044 47 355 2.0 6.0 0.00 0.00 0.00 46 1005.6
20260506171547 46 355 3.0 6.0 0.00 0.00 0.00 45 1005.5
20260506170038 47 355 2.0 6.0 0.00 0.00 0.00 45 1005.6
20260506164550 46 355 0.0 9.0 0.00 0.00 0.00 46 1005.7